This demonstration page uses our WeatherBlox Daily Observations layout. Learn more.

Left ArrowRight Arrow

39.08367, -84.50855

Hourly Observations for January 31, 2021

Temp ( °F °C ) Dew Point ( °F °C ) Humidity (%) Winds ( mph kmh ) Pressure ( in mb ) Visibility ( mi km ) Precip ( " mm )
12:53 am 00:53 Cloudy with Light Snow 34 1.1 32 0 92 92 E 6 9 29.96 1015 3 4.82802 0.1 2.54
1:03 am 01:03 Cloudy with Light Snow 34 1.1 31 -0.6 89 89 ENE 5 7 29.97 1015 2.5 4.02335 0.02 0.508
1:21 am 01:21 Cloudy with Light Snow 34 1.1 31 -0.6 89 89 E 5 7 29.95 1014 2.5 4.02335 0.05 1.27
1:30 am 01:30 Cloudy with Light Snow 34 1.1 32 0 92 92 E 5 7 29.94 1014 3 4.82802 0.06 1.524
1:53 am 01:53 Cloudy with Light Rain 34 1.1 32 0 92 92 E 5 7 29.91 1013 3 4.82802 0.09 2.286
2:53 am 02:53 Cloudy with Light Rain 36 2.2 33 0.6 89 89 VRB 6 9 29.87 1012 10 16.0934 0.03 0.762
3:18 am 03:18 Cloudy with Light Rain 36 2.2 33 0.6 89 89 VRB 5 7 29.87 1012 10 16.0934 0.001 0.001
3:41 am 03:41 Cloudy 36 2.2 33 0.6 89 89 SE 3 6 29.86 1011 10 16.0934 0.001 0.001
3:53 am 03:53 Cloudy 36 2.2 33 0.6 89 89 VRB 6 9 29.83 1010 10 16.0934 0.001 0.001
4:32 am 04:32 Cloudy 37 2.8 33 0.6 86 86 SSE 7 11 29.82 1010 10 16.0934 0 0
4:53 am 04:53 Cloudy 37 2.8 33 0.6 86 86 SE 7 11 29.8 1009 10 16.0934 0 0
5:53 am 05:53 Cloudy with Rain 37 2.8 34 1.1 89 89 ESE 6 9 29.77 1008 4 6.43736 0.04 1.016
6:15 am 06:15 Cloudy with Light Rain 37 2.8 34 1.1 89 89 E 3 6 29.77 1008 10 16.0934 0.02 0.508
6:53 am 06:53 Cloudy with Light Rain 37 2.8 35 1.7 93 93 VRB 3 6 29.75 1007 9 14.48406 0.04 1.016
7:53 am 07:53 Cloudy with Light Rain 35 1.7 34 1.1 96 96 NE 8 13 29.73 1007 3 4.82802 0.06 1.524
8:53 am 08:53 Cloudy with Light Rain 35 1.7 34 1.1 96 96 NE 7 11 29.73 1007 2.5 4.02335 0.03 0.762
9:53 am 09:53 Cloudy with Light Rain 36 2.2 35 1.7 97 97 NE 8 13 29.71 1006 2.5 4.02335 0.02 0.508
10:53 am 10:53 Cloudy with Light Rain 36 2.2 35 1.7 97 97 NE 8 13 29.72 1006 2.5 4.02335 0.05 1.27
11:07 am 11:07 Cloudy with Light Rain 37 2.8 35 1.7 93 93 NNE 7 11 29.73 1007 3 4.82802 0.01 0.254
11:53 am 11:53 Cloudy with Light Rain 37 2.8 36 2.2 96 96 NE 8 13 29.71 1006 3 4.82802 0.03 0.762
12:53 pm 12:53 Cloudy with Light Rain 38 3.3 37 2.8 97 97 NE 5 7 29.7 1006 5 8.0467 0.04 1.016
1:53 pm 13:53 Cloudy with Light Rain 39 3.9 38 3.3 96 96 NNE 3 6 29.7 1006 5 8.0467 0.03 0.762
2:53 pm 14:53 Cloudy with Light Rain 40 4.4 38 3.3 93 93 Calm 29.71 1006 4 6.43736 0.03 0.762
3:53 pm 15:53 Cloudy with Light Rain 40 4.4 39 3.9 97 97 SSW 5 7 29.73 1007 3 4.82802 0.02 0.508
4:53 pm 16:53 Cloudy with Light Rain 40 4.4 37 2.8 89 89 W 9 15 29.75 1007 5 8.0467 0.02 0.508
5:00 pm 17:00 Cloudy with Light Rain 40 4.4 37 2.8 89 89 W 10 17 29.76 1008 8 12.87472 0.01 0.254
5:09 pm 17:09 Cloudy with Light Rain 40 4.4 37 2.8 89 89 WSW 10 17 29.77 1008 9 14.48406 0.01 0.254
5:53 pm 17:53 Cloudy with Light Rain 38 3.3 36 2.2 93 93 W 7 11 29.77 1008 10 16.0934 0.03 0.762
6:00 pm 18:00 Cloudy with Light Rain 38 3.3 36 2.2 93 93 W 6 9 29.79 1009 10 16.0934 0.001 0.001
6:53 pm 18:53 Cloudy with Light Rain 37 2.8 35 1.7 93 93 WSW 10 17 29.79 1009 8 12.87472 0.03 0.762
7:53 pm 19:53 Cloudy with Light Rain 36 2.2 34 1.1 93 93 WSW 6 9 29.81 1009 8 12.87472 0.04 1.016
8:53 pm 20:53 Cloudy with Light Rain 35 1.7 33 0.6 93 93 NNW 5 7 29.82 1010 6 9.65604 0.03 0.762
9:53 pm 21:53 Cloudy with Light Rain 35 1.7 32 0 89 89 N 7 11 29.83 1010 7 11.26538 0.01 0.254
11:41 pm 23:41 Cloudy with Light Snow 33 0.6 31 -0.6 92 92 NNW 13 20 29.87 1011 3 4.82802 0.001 0.001
11:47 pm 23:47 Cloudy with Light Snow 34 1 30 -1 87 87 NNW 10 17 29.87 1011 2.5 4.02335 0.001 0.001
11:53 pm 23:53 Cloudy with Light Snow 33 0.6 31 -0.6 92 92 NNW 12 19 29.85 1011 2.5 4.02335 0.001 0.001

Powered by AerisWeather